Flag for Iran Weather past 2 weeks in Esfahãn, Iran

Now
75 °F

Haze.


Feels Like: 76 °F
Forecast: 67 / 99 °F
Wind: 7 mph from Northwest

Location: Esfahan

Current Time: Jul 5, 2015 at 8:05:47 AM

Latest Report: Jul 5, 2015 at 7:30 AM


Visibility: 0 mi

Pressure: 30.04 "Hg (25.06 "Hg at 1576m altitude)

Humidity: 21%

Dew point: 32 °F

Location of EsfahãnLocation

Historic Weather in Esfahãn — Graph

°F

Esfahãn temperature yesterday

Maximum temperature yesterday: 102 °F (at 5:00 PM)
Minimum temperature yesterday: 63 °F (at 5:00 AM)
Average temperature yesterday: 86 °F

Past Weeks' High & Low Weather Summary

 TemperatureHumidityPressure
High104 °F (Jun 30, 3:30 PM)29% (Jun 20, 6:30 AM)30.12 "Hg (Jun 20, 6:30 AM)
Low59 °F (Jun 20, 6:30 AM)3% (Jun 22, 7:30 PM)29.59 "Hg (Jun 26, 4:00 PM)
Average86 °F11%29.87 "Hg
* Reported Jun 20 6:30 AM — Jul 5 7:00 AM, Esfahãn, Weather by CustomWeather, © 2015

Note: Actual official high and low records may vary slightly from our data, if they occured in-between our weather recording intervals... More about our weather records

Advertising

Esfahãn weather history for previous 24 hours

 ConditionsComfort  
Time TempWeatherWind HumidityBarometerVisibility
7:00 AM
Sun, Jul 5
70 °FHaze.7 mph18%30.04 "Hg1 mi
6:30 AM68 °FHaze.9 mph20%30.04 "Hg1 mi
6:00 AM70 °FHaze.5 mph20%30.04 "Hg2 mi
5:30 AM66 °FClear.5 mph22%30.01 "Hg10 mi
5:00 AM70 °FClear.7 mph16%30.01 "Hg10 mi
4:30 AM75 °FClear.5 mph15%30.01 "Hg10 mi
4:00 AM75 °FClear.7 mph14%30.01 "Hg10 mi
3:30 AM75 °FClear.5 mph15%30.01 "Hg10 mi
3:00 AM75 °FClear.7 mph12%30.01 "Hg10 mi
2:30 AM75 °FClear.5 mph12%30.01 "Hg10 mi
2:00 AM77 °FClear.No wind12%30.01 "Hg10 mi
1:30 AM79 °FClear.No wind12%30.01 "Hg10 mi
1:00 AM79 °FClear.9 mph10%30.01 "Hg10 mi
12:30 AM82 °FClear.No wind9%30.01 "Hg10 mi
12:00 AM86 °FClear.5 mph8%30.01 "Hg10 mi
11:30 PM
Sat, Jul 4
88 °FClear.9 mph9%30.01 "Hg10 mi
11:00 PM90 °FClear.7 mph8%30.01 "Hg10 mi
10:30 PM90 °FClear.7 mph9%30.01 "Hg10 mi
10:00 PM88 °FClear.9 mph9%29.98 "Hg10 mi
9:30 PM93 °FSunny.14 mph8%29.98 "Hg10 mi
9:00 PM93 °FSunny.14 mph7%29.98 "Hg10 mi
8:30 PM97 °FScattered clouds.12 mph5%29.98 "HgN/A
8:00 PM97 °FScattered clouds.16 mph5%29.95 "HgN/A
7:30 PM99 °FScattered clouds.14 mph5%29.95 "HgN/A
7:00 PM100 °FScattered clouds.16 mph4%29.95 "HgN/A
6:30 PM100 °FScattered clouds.9 mph5%29.95 "HgN/A
6:00 PM100 °FScattered clouds.7 mph5%29.92 "HgN/A
5:30 PM100 °FScattered clouds.14 mph5%29.92 "HgN/A
5:00 PM102 °FPassing clouds.9 mph4%29.95 "HgN/A
4:30 PM100 °FPassing clouds.7 mph4%29.95 "HgN/A
4:00 PM100 °FPassing clouds.9 mph5%29.95 "HgN/A
3:30 PM100 °FPassing clouds.12 mph5%29.95 "HgN/A
3:00 PM99 °FPassing clouds.12 mph5%29.98 "HgN/A
2:30 PM99 °FPassing clouds.9 mph5%29.98 "HgN/A
2:00 PM100 °FPassing clouds.9 mph5%29.98 "HgN/A
1:30 PM99 °FPassing clouds.9 mph5%30.01 "HgN/A
1:00 PM97 °FSunny.9 mph6%30.01 "Hg10 mi
12:30 PM97 °FSunny.7 mph6%30.01 "Hg10 mi
12:00 PM97 °FSunny.12 mph6%30.04 "Hg10 mi
11:30 AM95 °FSunny.12 mph7%30.04 "Hg10 mi
11:00 AM93 °FSunny.9 mph7%30.04 "Hg10 mi
10:30 AM93 °FSunny.7 mph8%30.04 "Hg10 mi
10:00 AM90 °FClear.5 mph10%30.04 "Hg5 mi
9:30 AM86 °FClear.7 mph11%30.04 "Hg4 mi
9:00 AM82 °FClear.9 mph13%30.04 "Hg5 mi
8:30 AM79 °FHaze.9 mph15%30.04 "Hg2 mi
8:00 AM73 °FHaze.7 mph19%30.04 "Hg1 mi
Weather by CustomWeather, © 2015

See weather overviewHow to use our weather pages